Time,TemperatureF,DewpointF,PressureIn,WindDirection,WindDirectionDegrees,WindSpeedMPH,WindSpeedGustMPH,Humidity,HourlyPrecipIn,Conditions,Clouds,dailyrainin,SoftwareType,DateUTC
2013-04-20 00:00:00,52.0,23.8,29.21,NW,315,8.1,10.5,33,-99.99,,---,-99.99,VWS V14.01,2013-04-20 04:00:00,
2013-04-20 00:01:00,52.0,23.8,29.21,NNW,327,8.7,10.5,33,-99.99,,---,-99.99,VWS V14.01,2013-04-20 04:01:00,
2013-04-20 00:02:00,51.8,23.6,29.21,NNW,337,8.1,15.4,33,-99.99,,---,-99.99,VWS V14.01,2013-04-20 04:02:00,
2013-04-20 00:03:00,51.6,24.2,29.21,NW,319,6.7,10.1,34,-99.99,,---,-99.99,VWS V14.01,2013-04-20 04:03:00,
2013-04-20 00:08:00,51.3,24.6,29.21,NW,306,9.2,9.2,35,-99.99,,---,-99.99,VWS V14.01,2013-04-20 04:08:00,
2013-04-20 00:13:00,50.9,22.1,29.21,NNW,336,8.1,8.1,32,-99.99,,---,-99.99,VWS V14.01,2013-04-20 04:13:00,
2013-04-20 00:18:00,50.9,24.2,29.18,NNW,337,6.3,6.3,35,-99.99,,---,-99.99,VWS V14.01,2013-04-20 04:18:00,
2013-04-20 00:23:00,50.9,25.6,29.18,NNW,329,3.1,3.1,37,-99.99,,---,-99.99,VWS V14.01,2013-04-20 04:23:00,
2013-04-20 00:28:00,50.9,25.6,29.18,NNW,327,2.7,3.1,37,-99.99,,---,-99.99,VWS V14.01,2013-04-20 04:28:00,
2013-04-20 00:33:00,51.1,27.0,29.21,NNW,340,0.0,0.0,39,-99.99,,---,-99.99,VWS V14.01,2013-04-20 04:33:00,
2013-04-20 00:38:00,51.3,30.1,29.21,NNE,15,5.4,5.4,44,-99.99,,---,-99.99,VWS V14.01,2013-04-20 04:38:00,
2013-04-20 00:43:00,51.3,30.1,29.21,North,357,2.2,3.6,44,-99.99,,---,-99.99,VWS V14.01,2013-04-20 04:43:00,
2013-04-20 02:36:00,48.6,23.5,29.21,NNW,335,0.0,0.0,37,-99.99,,---,-99.99,VWS V14.01,2013-04-20 06:36:00,
2013-04-20 02:42:00,48.4,22.7,29.21,NNW,339,2.7,5.8,36,-99.99,,---,-99.99,VWS V14.01,2013-04-20 06:42:00,
2013-04-20 02:47:00,48.4,23.3,29.21,NNW,329,4.9,5.4,37,-99.99,,---,-99.99,VWS V14.01,2013-04-20 06:47:00,
2013-04-20 02:52:00,48.4,23.3,29.21,NNW,342,2.7,4.9,37,-99.99,,---,-99.99,VWS V14.01,2013-04-20 06:52:00,
2013-04-20 02:57:00,48.2,22.5,29.21,NNW,328,4.9,5.4,36,-99.99,,---,-99.99,VWS V14.01,2013-04-20 06:57:00,
2013-04-20 03:02:00,48.4,22.0,29.23,NW,320,0.0,0.0,35,-99.99,,---,-99.99,VWS V14.01,2013-04-20 07:02:00,
2013-04-20 03:07:00,48.4,22.7,29.23,NW,322,0.0,0.0,36,-99.99,,---,-99.99,VWS V14.01,2013-04-20 07:07:00,
2013-04-20 03:12:00,48.2,22.5,29.23,NNW,337,0.0,0.0,36,-99.99,,---,-99.99,VWS V14.01,2013-04-20 07:12:00,
2013-04-20 03:18:00,48.2,23.2,29.23,NNW,337,0.0,0.0,37,-99.99,,---,-99.99,VWS V14.01,2013-04-20 07:18:00,
2013-04-20 03:23:00,48.4,23.3,29.23,NNW,337,0.0,0.0,37,-99.99,,---,-99.99,VWS V14.01,2013-04-20 07:23:00,
2013-04-20 03:28:00,48.4,24.0,29.23,NNW,337,0.0,0.0,38,-99.99,,---,-99.99,VWS V14.01,2013-04-20 07:28:00,
2013-04-20 03:33:00,48.2,23.8,29.23,NNW,337,0.0,0.0,38,-99.99,,---,-99.99,VWS V14.01,2013-04-20 07:33:00,
2013-04-20 03:38:00,48.2,23.8,29.23,NW,314,2.7,3.6,38,-99.99,,---,-99.99,VWS V14.01,2013-04-20 07:38:00,
2013-04-20 03:43:00,48.2,23.8,29.23,NW,325,0.0,3.6,38,-99.99,,---,-99.99,VWS V14.01,2013-04-20 07:43:00,
2013-04-20 03:49:00,48.4,24.6,29.23,NW,324,0.0,0.0,39,-99.99,,---,-99.99,VWS V14.01,2013-04-20 07:49:00,
2013-04-20 03:54:00,48.6,25.4,29.23,WNW,300,0.0,0.0,40,-99.99,,---,-99.99,VWS V14.01,2013-04-20 07:54:00,
2013-04-20 03:59:00,48.6,26.5,29.23,NW,306,0.0,0.0,42,-99.99,,---,-99.99,VWS V14.01,2013-04-20 07:59:00,
2013-04-20 04:04:00,48.6,27.6,29.23,NW,316,0.0,0.0,44,-99.99,,---,-99.99,VWS V14.01,2013-04-20 08:04:00,
2013-04-20 04:09:00,48.7,29.4,29.23,West,275,0.0,0.0,47,-99.99,,---,-99.99,VWS V14.01,2013-04-20 08:09:00,
2013-04-20 04:14:00,48.7,29.4,29.26,WNW,291,0.0,0.0,47,-99.99,,---,-99.99,VWS V14.01,2013-04-20 08:14:00,
2013-04-20 04:19:00,48.6,27.1,29.26,West,268,2.7,5.8,43,-99.99,,---,-99.99,VWS V14.01,2013-04-20 08:19:00,
2013-04-20 04:24:00,48.4,23.3,29.26,NW,314,6.3,6.3,37,-99.99,,---,-99.99,VWS V14.01,2013-04-20 08:24:00,
2013-04-20 04:29:00,48.4,21.3,29.26,NW,324,7.6,8.1,34,-99.99,,---,-99.99,VWS V14.01,2013-04-20 08:29:00,
2013-04-20 04:34:00,48.2,15.8,29.26,NW,311,5.8,6.3,27,-99.99,,---,-99.99,VWS V14.01,2013-04-20 08:34:00,
2013-04-20 04:39:00,48.2,4.1,29.26,NW,314,7.6,8.7,16,-99.99,,---,-99.99,VWS V14.01,2013-04-20 08:39:00,
2013-04-20 04:44:00,48.2,4.1,29.26,West,276,4.9,8.1,16,-99.99,,---,-99.99,VWS V14.01,2013-04-20 08:44:00,
2013-04-20 04:50:00,48.0,5.3,29.26,NW,312,6.3,8.1,17,-99.99,,---,-99.99,VWS V14.01,2013-04-20 08:50:00,
2013-04-20 04:55:00,47.8,1.0,29.26,West,270,8.7,11.0,14,-99.99,,---,-99.99,VWS V14.01,2013-04-20 08:55:00,
2013-04-20 05:00:00,47.8,5.2,29.26,West,274,6.3,8.1,17,-99.99,,---,-99.99,VWS V14.01,2013-04-20 09:00:00,
2013-04-20 05:05:00,47.7,5.0,29.26,WSW,240,4.0,5.8,17,-99.99,,---,-99.99,VWS V14.01,2013-04-20 09:05:00,
2013-04-20 05:10:00,47.5,0.7,29.26,WNW,294,5.8,5.8,14,-99.99,,---,-99.99,VWS V14.01,2013-04-20 09:10:00,
2013-04-20 05:15:00,47.3,4.7,29.29,WNW,299,3.1,7.6,17,-99.99,,---,-99.99,VWS V14.01,2013-04-20 09:15:00,
2013-04-20 05:20:00,47.3,4.7,29.29,WNW,300,3.1,3.1,17,-99.99,,---,-99.99,VWS V14.01,2013-04-20 09:20:00,
2013-04-20 05:25:00,46.9,4.4,29.29,WNW,287,3.1,3.1,17,-99.99,,---,-99.99,VWS V14.01,2013-04-20 09:25:00,
2013-04-20 05:30:00,46.9,4.4,29.29,WNW,297,5.4,5.4,17,-99.99,,---,-99.99,VWS V14.01,2013-04-20 09:30:00,
2013-04-20 05:35:00,46.8,4.3,29.29,WNW,301,2.7,2.7,17,-99.99,,---,-99.99,VWS V14.01,2013-04-20 09:35:00,
2013-04-20 05:40:00,46.8,4.3,29.29,WNW,299,3.6,5.4,17,-99.99,,---,-99.99,VWS V14.01,2013-04-20 09:40:00,
2013-04-20 06:06:00,46.4,4.0,29.29,West,274,0.0,4.0,17,-99.99,,---,-99.99,VWS V14.01,2013-04-20 10:06:00,
2013-04-20 06:11:00,46.4,4.0,29.29,WNW,290,2.7,2.7,17,-99.99,,---,-99.99,VWS V14.01,2013-04-20 10:11:00,
2013-04-20 06:16:00,46.2,3.8,29.29,WNW,296,0.0,0.0,17,-99.99,,---,-99.99,VWS V14.01,2013-04-20 10:16:00,
2013-04-20 06:21:00,46.2,3.8,29.29,West,271,0.0,0.0,17,-99.99,,---,-99.99,VWS V14.01,2013-04-20 10:21:00,
2013-04-20 06:26:00,46.2,3.8,29.29,West,260,4.0,4.0,17,-99.99,,---,-99.99,VWS V14.01,2013-04-20 10:26:00,
2013-04-20 06:36:00,46.4,4.0,29.29,NW,309,0.0,2.7,17,-99.99,,---,-99.99,VWS V14.01,2013-04-20 10:36:00,
2013-04-20 06:41:00,46.4,4.0,29.29,WNW,290,3.6,3.6,17,-99.99,,---,-99.99,VWS V14.01,2013-04-20 10:41:00,
2013-04-20 06:46:00,46.2,3.8,29.32,WNW,287,6.3,6.3,17,-99.99,,---,-99.99,VWS V14.01,2013-04-20 10:46:00,
2013-04-20 06:54:00,46.2,1.1,29.32,WNW,287,6.3,6.3,15,-99.99,,---,-99.99,VWS V14.01,2013-04-20 10:54:00,
2013-04-20 06:59:00,46.4,-0.2,29.32,WNW,287,6.3,6.3,14,-99.99,,---,-99.99,VWS V14.01,2013-04-20 10:59:00,
2013-04-20 07:12:00,46.4,-0.2,29.32,WNW,287,6.3,6.3,14,-99.99,,---,-99.99,VWS V14.01,2013-04-20 11:12:00,
2013-04-20 07:17:00,46.2,1.1,29.32,WNW,287,6.3,6.3,15,-99.99,,---,-99.99,VWS V14.01,2013-04-20 11:17:00,
2013-04-20 07:22:00,46.2,1.1,29.32,WNW,287,6.3,6.3,15,-99.99,,---,-99.99,VWS V14.01,2013-04-20 11:22:00,
2013-04-20 07:27:00,46.0,1.0,29.32,WNW,287,6.3,6.3,15,-99.99,,---,-99.99,VWS V14.01,2013-04-20 11:27:00,
2013-04-20 07:32:00,46.0,1.0,29.32,WNW,287,6.3,6.3,15,-99.99,,---,-99.99,VWS V14.01,2013-04-20 11:32:00,
2013-04-20 07:37:00,46.0,1.0,29.32,WNW,294,7.6,7.6,15,-99.99,,---,-99.99,VWS V14.01,2013-04-20 11:37:00,
2013-04-20 07:42:00,46.0,1.0,29.32,WNW,294,7.6,7.6,15,-99.99,,---,-99.99,VWS V14.01,2013-04-20 11:42:00,
2013-04-20 07:47:00,45.9,0.8,29.32,WNW,294,7.6,7.6,15,-99.99,,---,-99.99,VWS V14.01,2013-04-20 11:47:00,
2013-04-20 07:52:00,45.9,0.8,29.32,WNW,294,7.6,7.6,15,-99.99,,---,-99.99,VWS V14.01,2013-04-20 11:52:00,
2013-04-20 07:58:00,45.7,0.7,29.32,WNW,294,7.6,7.6,15,-99.99,,---,-99.99,VWS V14.01,2013-04-20 11:58:00,
2013-04-20 08:03:00,45.5,0.6,29.35,WNW,294,7.6,7.6,15,-99.99,,---,-99.99,VWS V14.01,2013-04-20 12:03:00,
2013-04-20 08:08:00,45.5,0.6,29.35,WNW,294,7.6,7.6,15,-99.99,,---,-99.99,VWS V14.01,2013-04-20 12:08:00,
2013-04-20 08:13:00,45.5,0.6,29.35,NW,311,5.4,11.0,15,-99.99,,---,-99.99,VWS V14.01,2013-04-20 12:13:00,
2013-04-20 08:18:00,45.3,0.4,29.35,NW,316,4.0,4.0,15,-99.99,,---,-99.99,VWS V14.01,2013-04-20 12:18:00,
2013-04-20 08:24:00,45.1,0.3,29.35,NW,312,9.6,9.6,15,-99.99,,---,-99.99,VWS V14.01,2013-04-20 12:24:00,
2013-04-20 08:29:00,45.0,0.1,29.35,West,275,5.4,7.6,15,-99.99,,---,-99.99,VWS V14.01,2013-04-20 12:29:00,
2013-04-20 08:34:00,44.8,0.0,29.35,West,270,5.4,10.1,15,-99.99,,---,-99.99,VWS V14.01,2013-04-20 12:34:00,
2013-04-20 08:39:00,44.6,-0.2,29.35,WNW,301,8.3,8.3,15,-99.99,,---,-99.99,VWS V14.01,2013-04-20 12:39:00,
2013-04-20 08:44:00,44.4,-0.3,29.38,West,267,6.3,7.2,15,-99.99,,---,-99.99,VWS V14.01,2013-04-20 12:44:00,
2013-04-20 08:53:00,44.2,-0.5,29.38,WNW,288,5.8,10.1,15,-99.99,,---,-99.99,VWS V14.01,2013-04-20 12:53:00,
2013-04-20 08:58:00,44.6,-0.2,29.38,NW,319,5.8,8.1,15,-99.99,,---,-99.99,VWS V14.01,2013-04-20 12:58:00,
2013-04-20 09:03:00,44.8,0.0,29.38,West,259,3.1,6.3,15,-99.99,,---,-99.99,VWS V14.01,2013-04-20 13:03:00,
2013-04-20 09:08:00,44.8,0.0,29.38,WNW,303,10.5,10.5,15,-99.99,,---,-99.99,VWS V14.01,2013-04-20 13:08:00,
2013-04-20 09:13:00,45.3,0.4,29.38,West,263,5.4,6.3,15,-99.99,,---,-99.99,VWS V14.01,2013-04-20 13:13:00,
2013-04-20 09:18:00,45.7,0.7,29.38,NW,309,11.0,11.0,15,-99.99,,---,-99.99,VWS V14.01,2013-04-20 13:18:00,
2013-04-20 09:23:00,46.0,1.0,29.38,NW,305,8.7,8.7,15,-99.99,,---,-99.99,VWS V14.01,2013-04-20 13:23:00,
2013-04-20 09:28:00,46.0,1.0,29.38,NW,305,8.7,8.7,15,-99.99,,---,-99.99,VWS V14.01,2013-04-20 13:28:00,
2013-04-20 09:33:00,46.6,-0.1,29.38,NW,305,8.7,8.7,14,-99.99,,---,-99.99,VWS V14.01,2013-04-20 13:33:00,
2013-04-20 09:39:00,46.9,0.2,29.38,NW,305,8.7,8.7,14,-99.99,,---,-99.99,VWS V14.01,2013-04-20 13:39:00,
2013-04-20 09:44:00,46.9,0.2,29.38,West,264,8.1,8.1,14,-99.99,,---,-99.99,VWS V14.01,2013-04-20 13:44:00,
2013-04-20 09:49:00,47.1,0.4,29.38,West,264,8.1,8.1,14,-99.99,,---,-99.99,VWS V14.01,2013-04-20 13:49:00,
2013-04-20 09:54:00,47.5,0.7,29.38,NW,322,8.3,10.5,14,-99.99,,---,-99.99,VWS V14.01,2013-04-20 13:54:00,
2013-04-20 09:59:00,47.5,0.7,29.41,NW,322,8.3,8.3,14,-99.99,,---,-99.99,VWS V14.01,2013-04-20 13:59:00,
2013-04-20 10:04:00,47.7,0.8,29.41,NW,318,7.6,7.6,14,-99.99,,---,-99.99,VWS V14.01,2013-04-20 14:04:00,
2013-04-20 10:09:00,47.5,0.7,29.41,NW,316,8.7,8.7,14,-99.99,,---,-99.99,VWS V14.01,2013-04-20 14:09:00,
2013-04-20 10:14:00,47.7,0.8,29.41,NW,316,8.7,8.7,14,-99.99,,---,-99.99,VWS V14.01,2013-04-20 14:14:00,
2013-04-20 10:19:00,47.8,1.0,29.41,NW,316,8.7,8.7,14,-99.99,,---,-99.99,VWS V14.01,2013-04-20 14:19:00,
2013-04-20 10:24:00,48.2,1.2,29.41,NW,316,8.7,8.7,14,-99.99,,---,-99.99,VWS V14.01,2013-04-20 14:24:00,
2013-04-20 10:29:00,48.6,1.5,29.41,NW,316,8.7,8.7,14,-99.99,,---,-99.99,VWS V14.01,2013-04-20 14:29:00,
2013-04-20 10:34:00,48.4,1.4,29.41,NW,316,8.7,8.7,14,-99.99,,---,-99.99,VWS V14.01,2013-04-20 14:34:00,
2013-04-20 10:39:00,48.6,1.5,29.41,NW,316,8.7,8.7,14,-99.99,,---,-99.99,VWS V14.01,2013-04-20 14:39:00,
2013-04-20 10:44:00,48.7,1.7,29.41,NW,316,8.7,8.7,14,-99.99,,---,-99.99,VWS V14.01,2013-04-20 14:44:00,
2013-04-20 10:49:00,48.9,1.8,29.41,NW,316,8.7,8.7,14,-99.99,,---,-99.99,VWS V14.01,2013-04-20 14:49:00,
2013-04-20 10:54:00,49.1,2.0,29.41,NW,322,12.8,12.8,14,-99.99,,---,-99.99,VWS V14.01,2013-04-20 14:54:00,
2013-04-20 10:59:00,49.1,2.0,29.41,NW,322,12.8,12.8,14,-99.99,,---,-99.99,VWS V14.01,2013-04-20 14:59:00,
2013-04-20 11:04:00,49.6,2.4,29.41,NW,322,12.8,12.8,14,-99.99,,---,-99.99,VWS V14.01,2013-04-20 15:04:00,
2013-04-20 11:10:00,49.6,2.4,29.41,NW,322,12.8,12.8,14,-99.99,,---,-99.99,VWS V14.01,2013-04-20 15:10:00,
2013-04-20 11:15:00,49.8,2.5,29.41,West,263,8.3,8.3,14,-99.99,,---,-99.99,VWS V14.01,2013-04-20 15:15:00,
2013-04-20 11:20:00,49.6,2.4,29.41,West,263,8.3,8.3,14,-99.99,,---,-99.99,VWS V14.01,2013-04-20 15:20:00,
2013-04-20 11:25:00,49.6,2.4,29.41,West,263,8.3,8.3,14,-99.99,,---,-99.99,VWS V14.01,2013-04-20 15:25:00,
2013-04-20 11:30:00,49.5,2.3,29.44,West,281,10.5,10.5,14,-99.99,,---,-99.99,VWS V14.01,2013-04-20 15:30:00,
2013-04-20 11:35:00,49.8,2.5,29.44,West,270,9.6,9.6,14,-99.99,,---,-99.99,VWS V14.01,2013-04-20 15:35:00,
2013-04-20 11:40:00,50.5,3.1,29.44,NW,310,15.0,15.0,14,-99.99,,---,-99.99,VWS V14.01,2013-04-20 15:40:00,
2013-04-20 11:45:00,51.1,3.6,29.41,West,279,10.1,11.0,14,-99.99,,---,-99.99,VWS V14.01,2013-04-20 15:45:00,
2013-04-20 11:50:00,50.7,3.3,29.41,WNW,289,8.3,8.7,14,-99.99,,---,-99.99,VWS V14.01,2013-04-20 15:50:00,
2013-04-20 11:55:00,50.9,3.4,29.41,NW,305,10.1,15.4,14,-99.99,,---,-99.99,VWS V14.01,2013-04-20 15:55:00,
2013-04-20 12:00:00,51.4,3.8,29.41,NW,311,5.4,10.5,14,-99.99,,---,-99.99,VWS V14.01,2013-04-20 16:00:00,
2013-04-20 12:06:00,51.3,3.7,29.41,West,280,8.1,13.2,14,-99.99,,---,-99.99,VWS V14.01,2013-04-20 16:06:00,
2013-04-20 12:11:00,50.9,3.4,29.41,NNW,334,13.2,16.3,14,-99.99,,---,-99.99,VWS V14.01,2013-04-20 16:11:00,
2013-04-20 12:16:00,51.4,3.8,29.41,WNW,290,8.7,16.3,14,-99.99,,---,-99.99,VWS V14.01,2013-04-20 16:16:00,
2013-04-20 12:21:00,51.3,3.7,29.41,WNW,291,13.2,15.0,14,-99.99,,---,-99.99,VWS V14.01,2013-04-20 16:21:00,
2013-04-20 12:26:00,51.3,3.7,29.41,West,275,8.3,8.3,14,-99.99,,---,-99.99,VWS V14.01,2013-04-20 16:26:00,
2013-04-20 12:31:00,51.3,3.7,29.41,NW,326,12.8,13.2,14,-99.99,,---,-99.99,VWS V14.01,2013-04-20 16:31:00,
2013-04-20 12:36:00,51.4,3.8,29.41,NW,325,9.6,9.6,14,-99.99,,---,-99.99,VWS V14.01,2013-04-20 16:36:00,
2013-04-20 12:41:00,52.2,2.8,29.41,North,350,13.2,17.0,13,-99.99,,---,-99.99,VWS V14.01,2013-04-20 16:41:00,
2013-04-20 12:46:00,52.2,2.8,29.41,SSW,200,5.8,5.8,13,-99.99,,---,-99.99,VWS V14.01,2013-04-20 16:46:00,
2013-04-20 12:51:00,52.5,3.1,29.41,NW,308,7.6,13.2,13,-99.99,,---,-99.99,VWS V14.01,2013-04-20 16:51:00,
2013-04-20 12:56:00,52.0,2.7,29.41,NW,318,9.6,15.0,13,-99.99,,---,-99.99,VWS V14.01,2013-04-20 16:56:00,
2013-04-20 13:01:00,52.5,3.1,29.41,NW,310,19.2,23.3,13,-99.99,,---,-99.99,VWS V14.01,2013-04-20 17:01:00,
2013-04-20 13:06:00,52.3,3.0,29.41,WSW,251,10.5,15.0,13,-99.99,,---,-99.99,VWS V14.01,2013-04-20 17:06:00,
2013-04-20 13:11:00,52.5,3.1,29.41,NW,315,11.0,11.0,13,-99.99,,---,-99.99,VWS V14.01,2013-04-20 17:11:00,
2013-04-20 13:16:00,52.2,2.8,29.41,WNW,297,13.2,16.8,13,-99.99,,---,-99.99,VWS V14.01,2013-04-20 17:16:00,
2013-04-20 13:21:00,52.2,2.8,29.41,NW,318,10.5,12.3,13,-99.99,,---,-99.99,VWS V14.01,2013-04-20 17:21:00,
2013-04-20 13:26:00,52.2,2.8,29.41,WNW,302,7.2,15.4,13,-99.99,,---,-99.99,VWS V14.01,2013-04-20 17:26:00,
2013-04-20 13:32:00,52.3,3.0,29.41,West,268,10.5,10.5,13,-99.99,,---,-99.99,VWS V14.01,2013-04-20 17:32:00,
2013-04-20 13:37:00,52.9,3.4,29.41,NW,321,3.6,11.4,13,-99.99,,---,-99.99,VWS V14.01,2013-04-20 17:37:00,
2013-04-20 13:42:00,53.1,3.5,29.41,WNW,293,10.5,14.5,13,-99.99,,---,-99.99,VWS V14.01,2013-04-20 17:42:00,
2013-04-20 13:47:00,53.1,3.5,29.41,NNW,330,12.3,14.5,13,-99.99,,---,-99.99,VWS V14.01,2013-04-20 17:47:00,
2013-04-20 13:52:00,52.9,3.4,29.41,West,277,15.0,15.0,13,-99.99,,---,-99.99,VWS V14.01,2013-04-20 17:52:00,
2013-04-20 13:57:00,52.7,3.2,29.41,WSW,258,8.1,13.2,13,-99.99,,---,-99.99,VWS V14.01,2013-04-20 17:57:00,
2013-04-20 14:02:00,52.9,3.4,29.41,WNW,297,8.7,16.3,13,-99.99,,---,-99.99,VWS V14.01,2013-04-20 18:02:00,
2013-04-20 14:07:00,52.9,3.4,29.41,NW,315,15.4,15.4,13,-99.99,,---,-99.99,VWS V14.01,2013-04-20 18:07:00,
2013-04-20 14:12:00,52.7,3.2,29.41,WSW,248,11.0,13.2,13,-99.99,,---,-99.99,VWS V14.01,2013-04-20 18:12:00,
2013-04-20 14:17:00,52.7,3.2,29.41,West,277,15.0,15.0,13,-99.99,,---,-99.99,VWS V14.01,2013-04-20 18:17:00,
2013-04-20 14:22:00,52.7,3.2,29.41,West,276,8.1,11.0,13,-99.99,,---,-99.99,VWS V14.01,2013-04-20 18:22:00,
2013-04-20 14:27:00,52.0,2.7,29.41,WNW,300,8.1,8.7,13,-99.99,,---,-99.99,VWS V14.01,2013-04-20 18:27:00,
2013-04-20 14:32:00,52.5,3.1,29.41,NW,323,8.3,9.6,13,-99.99,,---,-99.99,VWS V14.01,2013-04-20 18:32:00,
2013-04-20 14:37:00,53.4,3.8,29.41,West,260,15.0,16.8,13,-99.99,,---,-99.99,VWS V14.01,2013-04-20 18:37:00,
2013-04-20 14:42:00,53.2,3.7,29.41,NW,309,13.2,13.2,13,-99.99,,---,-99.99,VWS V14.01,2013-04-20 18:42:00,
2013-04-20 14:48:00,52.9,3.4,29.41,WNW,282,8.7,13.6,13,-99.99,,---,-99.99,VWS V14.01,2013-04-20 18:48:00,
2013-04-20 14:53:00,52.9,3.4,29.41,NNW,340,8.7,12.3,13,-99.99,,---,-99.99,VWS V14.01,2013-04-20 18:53:00,
2013-04-20 14:58:00,53.6,4.0,29.41,West,271,13.2,13.6,13,-99.99,,---,-99.99,VWS V14.01,2013-04-20 18:58:00,
2013-04-20 15:19:00,54.3,4.5,29.44,North,353,7.6,12.8,13,-99.99,,---,-99.99,VWS V14.01,2013-04-20 19:19:00,
2013-04-20 15:24:00,54.3,4.5,29.44,West,274,10.1,10.1,13,-99.99,,---,-99.99,VWS V14.01,2013-04-20 19:24:00,
2013-04-20 15:29:00,54.5,4.7,29.44,WNW,303,8.7,8.7,13,-99.99,,---,-99.99,VWS V14.01,2013-04-20 19:29:00,
2013-04-20 15:34:00,55.0,5.1,29.44,WNW,301,9.2,13.2,13,-99.99,,---,-99.99,VWS V14.01,2013-04-20 19:34:00,
2013-04-20 15:45:00,53.8,4.1,29.44,NW,305,6.3,8.1,13,-99.99,,---,-99.99,VWS V14.01,2013-04-20 19:45:00,
2013-04-20 15:50:00,54.1,4.4,29.44,NW,304,5.8,6.3,13,-99.99,,---,-99.99,VWS V14.01,2013-04-20 19:50:00,
2013-04-20 15:55:00,54.0,4.2,29.44,NW,323,10.1,13.2,13,-99.99,,---,-99.99,VWS V14.01,2013-04-20 19:55:00,
2013-04-20 16:00:00,53.8,4.1,29.44,WNW,290,11.0,13.6,13,-99.99,,---,-99.99,VWS V14.01,2013-04-20 20:00:00,
2013-04-20 16:05:00,53.6,4.0,29.44,NNW,330,7.2,8.3,13,-99.99,,---,-99.99,VWS V14.01,2013-04-20 20:05:00,
2013-04-20 16:10:00,53.8,4.1,29.44,NNW,333,8.1,8.1,13,-99.99,,---,-99.99,VWS V14.01,2013-04-20 20:10:00,
2013-04-20 16:15:00,54.1,4.4,29.44,NW,304,6.3,13.2,13,-99.99,,---,-99.99,VWS V14.01,2013-04-20 20:15:00,
2013-04-20 16:20:00,54.1,4.4,29.44,WNW,293,6.3,8.3,13,-99.99,,---,-99.99,VWS V14.01,2013-04-20 20:20:00,
2013-04-20 16:25:00,53.6,4.0,29.44,NW,324,11.9,11.9,13,-99.99,,---,-99.99,VWS V14.01,2013-04-20 20:25:00,
2013-04-20 16:30:00,53.4,3.8,29.47,NNW,327,12.3,12.3,13,-99.99,,---,-99.99,VWS V14.01,2013-04-20 20:30:00,
2013-04-20 16:39:00,52.7,3.2,29.47,NW,305,5.8,8.3,13,-99.99,,---,-99.99,VWS V14.01,2013-04-20 20:39:00,
2013-04-20 16:45:00,52.7,3.2,29.47,NW,315,8.1,10.1,13,-99.99,,---,-99.99,VWS V14.01,2013-04-20 20:45:00,
2013-04-20 16:50:00,52.7,3.2,29.47,NW,306,7.2,12.3,13,-99.99,,---,-99.99,VWS V14.01,2013-04-20 20:50:00,
2013-04-20 16:55:00,54.5,4.7,29.47,NW,305,12.3,13.2,13,-99.99,,---,-99.99,VWS V14.01,2013-04-20 20:55:00,
2013-04-20 17:00:00,54.7,4.8,29.47,WNW,302,14.5,14.5,13,-99.99,,---,-99.99,VWS V14.01,2013-04-20 21:00:00,
2013-04-20 17:05:00,54.3,4.5,29.47,WNW,298,11.9,11.9,13,-99.99,,---,-99.99,VWS V14.01,2013-04-20 21:05:00,
2013-04-20 17:10:00,54.3,4.5,29.47,NNE,13,11.0,11.0,13,-99.99,,---,-99.99,VWS V14.01,2013-04-20 21:10:00,
2013-04-20 17:15:00,54.5,4.7,29.47,NNW,334,15.0,15.0,13,-99.99,,---,-99.99,VWS V14.01,2013-04-20 21:15:00,
2013-04-20 17:20:00,54.3,4.5,29.47,NW,306,15.4,15.4,13,-99.99,,---,-99.99,VWS V14.01,2013-04-20 21:20:00,
2013-04-20 17:25:00,53.8,4.1,29.47,WNW,302,8.1,8.7,13,-99.99,,---,-99.99,VWS V14.01,2013-04-20 21:25:00,
2013-04-20 17:30:00,53.1,3.5,29.50,NW,312,11.0,11.0,13,-99.99,,---,-99.99,VWS V14.01,2013-04-20 21:30:00,
2013-04-20 17:35:00,52.7,3.2,29.50,NW,310,10.1,10.1,13,-99.99,,---,-99.99,VWS V14.01,2013-04-20 21:35:00,
2013-04-20 17:40:00,52.7,3.2,29.50,NW,311,8.1,10.5,13,-99.99,,---,-99.99,VWS V14.01,2013-04-20 21:40:00,
2013-04-20 17:45:00,52.7,3.2,29.50,WNW,294,8.1,8.7,13,-99.99,,---,-99.99,VWS V14.01,2013-04-20 21:45:00,
2013-04-20 17:50:00,52.7,3.2,29.50,NNW,345,10.5,12.8,13,-99.99,,---,-99.99,VWS V14.01,2013-04-20 21:50:00,
2013-04-20 17:55:00,52.7,3.2,29.50,WNW,296,11.0,12.3,13,-99.99,,---,-99.99,VWS V14.01,2013-04-20 21:55:00,
2013-04-20 18:01:00,53.1,3.5,29.50,NNW,341,6.3,6.3,13,-99.99,,---,-99.99,VWS V14.01,2013-04-20 22:01:00,
2013-04-20 18:06:00,52.9,3.4,29.50,NNW,341,6.3,6.3,13,-99.99,,---,-99.99,VWS V14.01,2013-04-20 22:06:00,
2013-04-20 18:11:00,52.5,3.1,29.50,NNW,341,6.3,6.3,13,-99.99,,---,-99.99,VWS V14.01,2013-04-20 22:11:00,
2013-04-20 18:16:00,52.5,3.1,29.53,NNW,341,6.3,6.3,13,-99.99,,---,-99.99,VWS V14.01,2013-04-20 22:16:00,
2013-04-20 18:21:00,52.2,2.8,29.53,NW,307,10.5,10.5,13,-99.99,,---,-99.99,VWS V14.01,2013-04-20 22:21:00,
2013-04-20 18:26:00,52.2,2.8,29.53,NW,307,10.5,10.5,13,-99.99,,---,-99.99,VWS V14.01,2013-04-20 22:26:00,
2013-04-20 18:31:00,52.2,2.8,29.53,NNW,333,10.5,10.5,13,-99.99,,---,-99.99,VWS V14.01,2013-04-20 22:31:00,
2013-04-20 18:36:00,52.2,2.8,29.53,NNW,333,10.5,10.5,13,-99.99,,---,-99.99,VWS V14.01,2013-04-20 22:36:00,
2013-04-20 18:41:00,51.8,2.5,29.53,NNW,333,10.5,10.5,13,-99.99,,---,-99.99,VWS V14.01,2013-04-20 22:41:00,
2013-04-20 18:46:00,51.6,4.0,29.53,NNW,333,10.5,10.5,14,-99.99,,---,-99.99,VWS V14.01,2013-04-20 22:46:00,
2013-04-20 18:51:00,51.6,4.0,29.53,NNW,333,10.5,10.5,14,-99.99,,---,-99.99,VWS V14.01,2013-04-20 22:51:00,
2013-04-20 18:56:00,51.6,4.0,29.53,NNW,333,10.5,10.5,14,-99.99,,---,-99.99,VWS V14.01,2013-04-20 22:56:00,
2013-04-20 19:01:00,51.6,4.0,29.53,NNW,333,10.5,10.5,14,-99.99,,---,-99.99,VWS V14.01,2013-04-20 23:01:00,
2013-04-20 19:06:00,51.6,4.0,29.53,NNW,333,10.5,10.5,14,-99.99,,---,-99.99,VWS V14.01,2013-04-20 23:06:00,
2013-04-20 19:11:00,50.7,3.3,29.53,NNW,333,10.5,10.5,14,-99.99,,---,-99.99,VWS V14.01,2013-04-20 23:11:00,
2013-04-20 19:16:00,50.7,3.3,29.56,NNW,333,10.5,10.5,14,-99.99,,---,-99.99,VWS V14.01,2013-04-20 23:16:00,
2013-04-20 19:21:00,50.2,2.8,29.56,NNW,333,10.5,10.5,14,-99.99,,---,-99.99,VWS V14.01,2013-04-20 23:21:00,
2013-04-20 19:27:00,50.0,2.7,29.56,NNW,333,10.5,10.5,14,-99.99,,---,-99.99,VWS V14.01,2013-04-20 23:27:00,
2013-04-20 19:32:00,49.8,2.5,29.56,NNW,333,10.5,10.5,14,-99.99,,---,-99.99,VWS V14.01,2013-04-20 23:32:00,
2013-04-20 19:37:00,49.6,2.4,29.56,NNW,333,10.5,10.5,14,-99.99,,---,-99.99,VWS V14.01,2013-04-20 23:37:00,
2013-04-20 20:11:00,48.2,1.2,29.59,NNW,331,0.0,0.0,14,-99.99,,---,-99.99,VWS V14.01,2013-04-21 00:11:00,
2013-04-20 20:16:00,48.2,1.2,29.59,NNW,346,6.3,6.3,14,-99.99,,---,-99.99,VWS V14.01,2013-04-21 00:16:00,
2013-04-20 20:21:00,48.2,1.2,29.59,NNW,346,6.3,6.3,14,-99.99,,---,-99.99,VWS V14.01,2013-04-21 00:21:00,
2013-04-20 20:26:00,47.5,0.7,29.59,NNW,346,6.3,6.3,14,-99.99,,---,-99.99,VWS V14.01,2013-04-21 00:26:00,
2013-04-20 20:31:00,47.3,0.5,29.62,NNW,346,6.3,6.3,14,-99.99,,---,-99.99,VWS V14.01,2013-04-21 00:31:00,
2013-04-20 20:36:00,47.3,0.5,29.62,NNW,346,6.3,6.3,14,-99.99,,---,-99.99,VWS V14.01,2013-04-21 00:36:00,
2013-04-20 20:41:00,47.3,0.5,29.62,NNW,346,6.3,6.3,14,-99.99,,---,-99.99,VWS V14.01,2013-04-21 00:41:00,
2013-04-20 20:46:00,47.3,0.5,29.62,NNW,336,5.8,5.8,14,-99.99,,---,-99.99,VWS V14.01,2013-04-21 00:46:00,
2013-04-20 20:52:00,46.9,0.2,29.62,NW,319,4.5,10.5,14,-99.99,,---,-99.99,VWS V14.01,2013-04-21 00:52:00,
2013-04-20 20:57:00,46.9,0.2,29.62,NNW,329,5.8,8.3,14,-99.99,,---,-99.99,VWS V14.01,2013-04-21 00:57:00,
2013-04-20 21:02:00,46.9,0.2,29.62,North,0,3.6,8.3,14,-99.99,,---,-99.99,VWS V14.01,2013-04-21 01:02:00,
2013-04-20 21:07:00,46.9,0.2,29.62,WNW,295,2.7,3.1,14,-99.99,,---,-99.99,VWS V14.01,2013-04-21 01:07:00,
2013-04-20 21:12:00,46.8,0.1,29.62,NNW,330,6.3,6.3,14,-99.99,,---,-99.99,VWS V14.01,2013-04-21 01:12:00,
2013-04-20 21:17:00,46.6,-0.1,29.65,NW,326,8.1,8.1,14,-99.99,,---,-99.99,VWS V14.01,2013-04-21 01:17:00,
2013-04-20 21:22:00,46.6,-0.1,29.65,NW,305,10.1,10.1,14,-99.99,,---,-99.99,VWS V14.01,2013-04-21 01:22:00,
2013-04-20 21:27:00,46.6,-0.1,29.65,NW,318,10.5,10.5,14,-99.99,,---,-99.99,VWS V14.01,2013-04-21 01:27:00,
2013-04-20 21:32:00,46.4,-0.2,29.65,NNW,341,2.7,6.3,14,-99.99,,---,-99.99,VWS V14.01,2013-04-21 01:32:00,
2013-04-20 21:37:00,46.4,-0.2,29.65,NNW,330,4.0,5.4,14,-99.99,,---,-99.99,VWS V14.01,2013-04-21 01:37:00,
2013-04-20 21:43:00,46.2,1.1,29.65,NNW,345,5.8,5.8,15,-99.99,,---,-99.99,VWS V14.01,2013-04-21 01:43:00,
2013-04-20 21:48:00,46.0,1.0,29.68,NNW,331,8.3,8.3,15,-99.99,,---,-99.99,VWS V14.01,2013-04-21 01:48:00,
2013-04-20 21:53:00,45.9,0.8,29.68,NNW,329,5.4,5.4,15,-99.99,,---,-99.99,VWS V14.01,2013-04-21 01:53:00,
2013-04-20 21:58:00,45.7,0.7,29.68,NNW,345,5.4,5.4,15,-99.99,,---,-99.99,VWS V14.01,2013-04-21 01:58:00,
2013-04-20 22:03:00,45.5,0.6,29.68,NNW,346,3.6,4.0,15,-99.99,,---,-99.99,VWS V14.01,2013-04-21 02:03:00,
2013-04-20 22:08:00,45.1,0.3,29.68,NNW,340,0.0,3.6,15,-99.99,,---,-99.99,VWS V14.01,2013-04-21 02:08:00,
2013-04-20 22:13:00,44.8,0.0,29.68,NW,326,0.0,0.0,15,-99.99,,---,-99.99,VWS V14.01,2013-04-21 02:13:00,
2013-04-20 22:18:00,44.6,-0.2,29.68,NNW,333,4.0,4.0,15,-99.99,,---,-99.99,VWS V14.01,2013-04-21 02:18:00,
2013-04-20 22:23:00,44.4,-0.3,29.68,NNW,331,0.0,0.0,15,-99.99,,---,-99.99,VWS V14.01,2013-04-21 02:23:00,
2013-04-20 22:35:00,43.9,-0.8,29.68,NNW,337,0.0,0.0,15,-99.99,,---,-99.99,VWS V14.01,2013-04-21 02:35:00,
2013-04-20 22:40:00,43.5,-1.1,29.68,North,0,0.0,0.0,15,-99.99,,---,-99.99,VWS V14.01,2013-04-21 02:40:00,
2013-04-20 22:45:00,43.3,-1.2,29.68,North,0,0.0,0.0,15,-99.99,,---,-99.99,VWS V14.01,2013-04-21 02:45:00,
2013-04-20 22:50:00,43.0,-1.5,29.68,NNW,336,0.0,0.0,15,-99.99,,---,-99.99,VWS V14.01,2013-04-21 02:50:00,
2013-04-20 22:55:00,42.8,-1.6,29.68,NNW,334,4.9,4.9,15,-99.99,,---,-99.99,VWS V14.01,2013-04-21 02:55:00,
2013-04-20 23:00:00,43.0,-1.5,29.68,NNW,333,3.1,4.5,15,-99.99,,---,-99.99,VWS V14.01,2013-04-21 03:00:00,
2013-04-20 23:05:00,43.0,-1.5,29.68,NW,325,3.6,3.6,15,-99.99,,---,-99.99,VWS V14.01,2013-04-21 03:05:00,
2013-04-20 23:11:00,42.8,-1.6,29.68,North,350,4.9,7.6,15,-99.99,,---,-99.99,VWS V14.01,2013-04-21 03:11:00,
2013-04-20 23:16:00,42.6,-0.4,29.68,NNW,335,2.7,6.3,16,-99.99,,---,-99.99,VWS V14.01,2013-04-21 03:16:00,
2013-04-20 23:21:00,42.4,-0.6,29.68,WNW,297,4.0,4.0,16,-99.99,,---,-99.99,VWS V14.01,2013-04-21 03:21:00,
2013-04-20 23:26:00,42.3,-0.7,29.68,NNW,343,3.6,6.3,16,-99.99,,---,-99.99,VWS V14.01,2013-04-21 03:26:00,
2013-04-20 23:31:00,42.3,-0.7,29.68,NNW,339,3.6,3.6,16,-99.99,,---,-99.99,VWS V14.01,2013-04-21 03:31:00,
2013-04-20 23:36:00,42.3,-0.7,29.68,NW,325,3.6,5.4,16,-99.99,,---,-99.99,VWS V14.01,2013-04-21 03:36:00,
2013-04-20 23:41:00,42.1,-0.9,29.68,NNW,328,4.5,4.9,16,-99.99,,---,-99.99,VWS V14.01,2013-04-21 03:41:00,
2013-04-20 23:46:00,42.1,-0.9,29.71,NNW,327,3.6,3.6,16,-99.99,,---,-99.99,VWS V14.01,2013-04-21 03:46:00,
2013-04-20 23:51:00,41.7,-1.2,29.71,North,349,3.6,4.9,16,-99.99,,---,-99.99,VWS V14.01,2013-04-21 03:51:00,
2013-04-20 23:56:00,41.5,-1.3,29.71,NNE,22,2.2,2.7,16,-99.99,,---,-99.99,VWS V14.01,2013-04-21 03:56:00,